Oscoda, MI

9:11 AM EST on December 11, 2019 (GMT -0500)
Oscoda-Wurtsmith

Weather History for KOSC - October, 2019

Change the Weather History Date:

Thursday, October 3, 2019

  Actual Average Record
Temperature  
Mean Temperature 56 °F -  
Max Temperature 60 °F 60 °F 82 °F (2005)
Min Temperature 52 °F 41 °F 32 °F (2008)
Degree Days  
Heating Degree Days 9    
Growing Degree Days 6 (Base 50)    
Moisture  
Dew Point 52 °F    
Average Humidity 91    
Maximum Humidity 100    
Minimum Humidity 74    
Precipitation  
Precipitation 0.12 in - - ()
Sea Level Pressure  
Sea Level Pressure 29.99 in    
Wind  
Wind Speed 11 mph (SSE)    
Max Wind Speed 18 mph    
Max Gust Speed 23 mph    
Visibility 8 miles    
Events Rain    
Averages and records for this station are not official NWS values.
T = Trace of Precipitation, MM = Missing Value Source: NWS Daily Summary

Daily Weather History Graph

Daily Weather History Graph

Search for Another Location

Airport or City:

Astronomy

Oct. 03, 2019 Rise Set
Actual Time 7:33 AM EDT 7:10 PM EDT
Civil Twilight 7:04 AM EDT 7:39 PM EDT
Nautical Twilight 6:30 AM EDT 8:13 PM EDT
Astronomical Twilight 5:56 AM EDT 8:47 PM EDT
Moon 1:15 PM EDT (10/3) 10:37 PM EDT (10/3)
Length of Visible Light 12h 35m
Length of Day
11h 37m
Waxing Crescent, 29% of the Moon is Illuminated
Oct 3
Waxing Crescent
Oct 5
First Quarter
Oct 13
Full
Oct 21
Last Quarter
Oct 27
New

Hourly Weather History & Observations

Time (EDT) Temp. Dew Point Humidity Pressure Visibility Wind Dir Wind Speed Gust Speed Precip Events Conditions
12:19 AM 52.3 °F 46.8 °F 81% 30.10 in 10.0 mi ENE 18.4 mph - N/A   Drizzle
12:37 AM 52.9 °F 46.4 °F 79% 30.09 in 10.0 mi East 12.7 mph 23.0 mph N/A   Overcast
12:55 AM 53.1 °F 45.1 °F 74% 30.11 in 10.0 mi East 13.8 mph 21.9 mph N/A   Overcast
12:56 AM 52.9 °F 45.1 °F 75% 30.11 in 10.0 mi ENE 13.8 mph 20.7 mph N/A   Overcast
1:15 AM 53.1 °F 45.5 °F 75% 30.11 in 10.0 mi East 13.8 mph 19.6 mph N/A   Overcast
1:35 AM 52.9 °F 45.5 °F 76% 30.10 in 10.0 mi ENE 16.1 mph 21.9 mph N/A   Overcast
1:58 AM 53.2 °F 45.7 °F 76% 30.10 in 10.0 mi ENE 11.5 mph 18.4 mph N/A   Overcast
2:16 AM 53.6 °F 46.6 °F 77% 30.10 in 10.0 mi East 12.7 mph - N/A   Overcast
2:35 AM 53.6 °F 46.8 °F 78% 30.09 in 10.0 mi East 13.8 mph - N/A Rain Light Rain
2:55 AM 53.2 °F 47.8 °F 82% 30.09 in 10.0 mi East 12.7 mph 16.1 mph N/A Rain Light Rain
3:19 AM 53.1 °F 48.0 °F 83% 30.07 in 10.0 mi East 12.7 mph - N/A Rain Light Rain
3:37 AM 53.1 °F 48.2 °F 84% 30.06 in 10.0 mi East 11.5 mph - 0.01 in Rain Light Rain
3:55 AM 52.7 °F 48.4 °F 85% 30.05 in 7.0 mi East 10.4 mph 16.1 mph 0.02 in Rain Light Rain
4:15 AM 52.7 °F 48.4 °F 85% 30.03 in 10.0 mi East 12.7 mph - N/A Rain Rain
4:35 AM 52.9 °F 48.7 °F 86% 30.03 in 10.0 mi East 11.5 mph - N/A Rain Rain
4:58 AM 52.7 °F 49.1 °F 88% 30.04 in 7.0 mi ESE 12.7 mph 18.4 mph N/A   Overcast
5:16 AM 52.2 °F 49.8 °F 92% 30.03 in 7.0 mi ESE 11.5 mph 17.3 mph 0.01 in Rain Light Rain
5:35 AM 52.3 °F 50.0 °F 92% 30.04 in 7.0 mi East 11.5 mph 19.6 mph 0.01 in Rain Light Rain
5:36 AM 52.3 °F 50.0 °F 92% 30.04 in 7.0 mi East 13.8 mph 19.6 mph 0.01 in Rain Light Rain
5:55 AM 52.7 °F 50.0 °F 91% 30.03 in 10.0 mi East 12.7 mph 17.3 mph 0.01 in Rain Light Rain
6:19 AM 52.7 °F 50.0 °F 91% 30.03 in 10.0 mi East 12.7 mph - 0.01 in   Light Drizzle
6:37 AM 53.2 °F 49.6 °F 88% 30.02 in 10.0 mi ESE 11.5 mph 16.1 mph 0.01 in   Overcast
6:55 AM 53.4 °F 49.8 °F 88% 30.02 in 10.0 mi East 11.5 mph - 0.01 in   Overcast
6:56 AM 53.6 °F 49.8 °F 87% 30.01 in 10.0 mi East 11.5 mph - 0.01 in   Overcast
7:15 AM 53.8 °F 49.6 °F 86% 30.01 in 10.0 mi ESE 10.4 mph 18.4 mph N/A   Overcast
7:16 AM 53.8 °F 49.6 °F 86% 30.01 in 10.0 mi ESE 11.5 mph 18.4 mph N/A   Overcast
7:35 AM 53.6 °F 49.8 °F 87% 30.01 in 7.0 mi ESE 12.7 mph 18.4 mph N/A   Drizzle
7:58 AM 52.7 °F 51.1 °F 94% 30.00 in 2.5 mi ESE 11.5 mph 17.3 mph N/A Rain Light Rain
8:15 AM 52.7 °F 52.3 °F 99% 30.00 in 3.0 mi ESE 8.1 mph - N/A Rain Light Rain
8:35 AM 52.7 °F 52.2 °F 98% 29.99 in 2.0 mi ESE 12.7 mph 17.3 mph 0.01 in Rain Light Rain
8:36 AM 52.7 °F 52.3 °F 99% 29.99 in 2.0 mi ESE 10.4 mph 17.3 mph 0.01 in Rain Light Rain
8:55 AM 52.7 °F 52.7 °F 100% 29.98 in 2.5 mi East 10.4 mph 18.4 mph 0.02 in Rain Light Rain
9:19 AM 52.7 °F 52.7 °F 100% 29.98 in 2.5 mi ESE 10.4 mph - 0.02 in Rain Light Rain
9:37 AM 52.7 °F 52.7 °F 100% 29.98 in 2.5 mi East 10.4 mph - 0.02 in Rain Light Rain
9:55 AM 52.7 °F 52.7 °F 100% 29.98 in 2.5 mi East 5.8 mph - 0.03 in   Drizzle
9:56 AM 52.7 °F 52.7 °F 100% 29.98 in 2.5 mi ESE 5.8 mph - 0.03 in   Drizzle
10:15 AM 53.2 °F 53.2 °F 100% 29.97 in 2.0 mi ESE 8.1 mph - 0.01 in   Drizzle
10:16 AM 53.2 °F 53.2 °F 100% 29.97 in 2.0 mi ESE 8.1 mph - 0.01 in   Drizzle
10:35 AM 53.6 °F 53.6 °F 100% 29.96 in 1.8 mi ESE 9.2 mph - 0.01 in Rain Rain
10:58 AM 53.8 °F 53.8 °F 100% 29.96 in 2.0 mi ESE 8.1 mph - 0.01 in Rain Light Rain
11:16 AM 54.0 °F 54.0 °F 100% 29.95 in 2.0 mi SSE 6.9 mph - 0.02 in Rain Light Rain
11:35 AM 54.1 °F 54.1 °F 100% 29.94 in 2.0 mi SE 10.4 mph - 0.02 in Rain Light Rain
11:36 AM 54.1 °F 54.1 °F 100% 29.94 in 2.0 mi SE 10.4 mph - 0.02 in Rain Light Rain
11:55 AM 54.1 °F 54.1 °F 100% 29.94 in 7.0 mi SSE 5.8 mph - 0.02 in   Overcast
12:19 PM 54.5 °F 54.5 °F 100% 29.95 in 3.0 mi South 5.8 mph - N/A   Drizzle
12:37 PM 54.3 °F 54.3 °F 100% 29.94 in 3.0 mi South 5.8 mph - N/A Rain Rain
12:56 PM 54.7 °F 54.7 °F 100% 29.93 in 2.5 mi SSE 5.8 mph - N/A   Light Drizzle
1:15 PM 55.4 °F 55.2 °F 99% 29.93 in 5.0 mi South 6.9 mph - N/A   Overcast
1:16 PM 55.4 °F 55.2 °F 99% 29.93 in 5.0 mi SSE 5.8 mph - N/A   Overcast
1:35 PM 55.9 °F 54.7 °F 96% 29.92 in 10.0 mi SSE 6.9 mph - N/A   Overcast
1:40 PM 55.8 °F 54.3 °F 95% 29.92 in 10.0 mi SE 5.8 mph - N/A   Overcast
1:58 PM 55.8 °F 55.0 °F 97% 29.92 in 4.0 mi South 5.8 mph - N/A   Overcast
2:16 PM 56.1 °F 55.4 °F 97% 29.91 in 7.0 mi South 4.6 mph - N/A   Overcast
2:35 PM 56.5 °F 55.9 °F 98% 29.91 in 7.0 mi SSW 5.8 mph - N/A   Overcast
2:36 PM 56.5 °F 55.6 °F 97% 29.91 in 7.0 mi SSW 4.6 mph - N/A   Overcast
2:55 PM 56.7 °F 54.9 °F 94% 29.90 in 7.0 mi SW 5.8 mph - N/A   Overcast
2:56 PM 56.7 °F 55.0 °F 94% 29.91 in 7.0 mi WSW 5.8 mph - N/A   Overcast
3:19 PM 56.7 °F 55.8 °F 97% 29.91 in 4.0 mi SW 5.8 mph - N/A   Overcast
3:36 PM 57.6 °F 56.5 °F 96% 29.91 in 7.0 mi WSW 8.1 mph - N/A   Overcast
3:55 PM 58.1 °F 55.2 °F 90% 29.91 in 10.0 mi West 9.2 mph - N/A   Overcast
3:56 PM 58.1 °F 55.2 °F 90% 29.91 in 10.0 mi WSW 10.4 mph - N/A   Overcast
4:15 PM 58.5 °F 55.2 °F 89% 29.92 in 10.0 mi West 8.1 mph - N/A   Overcast
4:16 PM 58.5 °F 55.4 °F 90% 29.92 in 10.0 mi West 8.1 mph - N/A   Overcast
4:35 PM 59.7 °F 55.8 °F 87% 29.92 in 10.0 mi West 6.9 mph - N/A   Overcast
4:58 PM 59.9 °F 55.6 °F 86% 29.92 in 10.0 mi West 6.9 mph - N/A   Overcast
5:16 PM 60.6 °F 56.1 °F 85% 29.92 in 10.0 mi West 8.1 mph - N/A   Overcast
5:35 PM 60.6 °F 56.3 °F 86% 29.93 in 10.0 mi West 9.2 mph - N/A   Overcast
5:36 PM 60.6 °F 56.3 °F 86% 29.93 in 10.0 mi West 9.2 mph - N/A   Overcast
5:55 PM 59.7 °F 55.9 °F 87% 29.94 in 7.0 mi WNW 12.7 mph 17.3 mph N/A Rain Light Rain
6:19 PM 58.6 °F 55.2 °F 88% 29.95 in 5.0 mi West 12.7 mph - N/A Rain Rain
6:37 PM 58.3 °F 55.0 °F 89% 29.95 in 7.0 mi West 10.4 mph - N/A   Overcast
6:55 PM 58.3 °F 54.7 °F 88% 29.97 in 10.0 mi West 8.1 mph - N/A   Overcast
6:56 PM 58.3 °F 54.9 °F 88% 29.96 in 10.0 mi West 8.1 mph - N/A   Overcast
7:15 PM 58.1 °F 54.1 °F 87% 29.97 in 10.0 mi WNW 8.1 mph - N/A   Overcast
7:16 PM 58.1 °F 54.0 °F 86% 29.97 in 10.0 mi WNW 6.9 mph - N/A   Overcast
7:35 PM 57.6 °F 53.4 °F 86% 29.98 in 10.0 mi WNW 8.1 mph 17.3 mph N/A   Overcast
7:58 PM 56.7 °F 52.9 °F 87% 29.99 in 10.0 mi West 9.2 mph - N/A   Overcast
8:16 PM 55.8 °F 52.7 °F 89% 29.99 in 10.0 mi West 9.2 mph - N/A   Mostly Cloudy
8:35 PM 55.4 °F 52.5 °F 90% 30.00 in 10.0 mi West 9.2 mph - N/A   Scattered Clouds
8:36 PM 55.2 °F 52.5 °F 91% 30.00 in 10.0 mi West 9.2 mph - N/A   Scattered Clouds
8:55 PM 54.3 °F 52.0 °F 92% 30.01 in 10.0 mi West 9.2 mph - N/A   Scattered Clouds
9:19 PM 54.9 °F 52.2 °F 91% 30.03 in 10.0 mi West 10.4 mph - N/A   Mostly Cloudy
9:37 PM 54.5 °F 52.2 °F 92% 30.03 in 10.0 mi West 10.4 mph - N/A   Mostly Cloudy
9:55 PM 54.1 °F 51.3 °F 90% 30.04 in 10.0 mi WNW 10.4 mph - N/A   Scattered Clouds
9:56 PM 54.0 °F 51.3 °F 91% 30.04 in 10.0 mi West 10.4 mph - N/A   Scattered Clouds
10:15 PM 53.4 °F 50.5 °F 90% 30.05 in 10.0 mi WNW 10.4 mph - N/A   Scattered Clouds
10:16 PM 53.4 °F 50.5 °F 90% 30.05 in 10.0 mi WNW 10.4 mph - N/A   Scattered Clouds
10:35 PM 53.1 °F 50.0 °F 89% 30.05 in 10.0 mi WNW 6.9 mph - N/A   Scattered Clouds
10:58 PM 53.6 °F 50.4 °F 89% 30.06 in 10.0 mi WNW 5.8 mph - N/A   Overcast
11:16 PM 53.6 °F 50.4 °F 89% 30.07 in 10.0 mi NW 5.8 mph - N/A   Overcast
11:35 PM 53.2 °F 50.7 °F 91% 30.08 in 7.0 mi NW 5.8 mph - N/A   Light Drizzle
11:36 PM 53.2 °F 50.7 °F 91% 30.08 in 7.0 mi NW 5.8 mph - N/A   Light Drizzle
11:55 PM 52.9 °F 51.6 °F 95% 30.09 in 10.0 mi NW 5.8 mph - N/A   Overcast